Hourly Weather Roundup
Issued by NWS Central Illinois

Home | Current Version | Previous Version | Text Only | Print | Product List | Glossary On
Versions: 1 2 3 4 5 6 7 8 9 10 11 12 13 14 15 16 17 18 19 20 21 22 23 24 25 26 27 28 29 30 31 32 33 34 35 36 37 38 39 40 41 42 43 44 45 46 47 48 49 50
000
NZUS43 KILX 170210
HWRILX

Area Weather Roundup
National Weather Service Lincoln IL
900 PM CDT MON OCT 16 2017

NOTE:  "FAIR" indicates few or no clouds below 12,000 feet, with
       no sigificant weather and/or obstructions to visibility.


CITY           SKY/WX    TMP DP  RH WIND       PRES   REMARKS
Bloomington    CLEAR     47  37  68 SW5       30.27S
Champaign      CLEAR     47  38  71 S9        30.28R
Danville       CLEAR     49  38  65 CALM      30.25S
Decatur        CLEAR     51  39  63 SW3       30.28R
Effingham      CLEAR     47  43  87 CALM      30.31F
Flora          CLEAR     49  44  83 CALM      30.32R
Galesburg      CLEAR     48  38  69 S3        30.24F
Jacksonville   CLEAR     47  39  73 S5        30.27S
Lacon          CLEAR     46  40  80 CALM      30.23S
Lawrenceville  CLEAR    N/A N/A N/A CALM      30.32R
Litchfield     CLEAR     48  39  72 S3        30.30R
$$


CITY           SKY/WX    TMP DP  RH WIND       PRES   REMARKS
Lincoln        CLEAR     49  40  71 CALM      30.27S
Macomb         CLEAR     47  39  73 SW6       30.27S
Mattoon        CLEAR     53  41  63 S6        30.28S
Mt Carmel AP   CLEAR     47  42  85 CALM      30.32R
Olney-Noble AP CLEAR     48  44  85 CALM      30.32S
Paris AP       CLEAR     43  39  85 S3        30.30S
Peoria         CLEAR     49  43  80 CALM      30.25S
Pontiac        CLEAR     49  41  75 S3        30.25S HAZE
Rantoul        CLEAR     50  41  71 SW5       30.27R
Robinson       CLEAR     44  41  88 CALM      30.32S
Springfield    CLEAR     46  42  86 CALM      30.28R
Taylorville    CLEAR     47  39  75 S6        30.29R
$$

...REGIONAL REPORTS...


CITY           SKY/WX    TMP DP  RH WIND       PRES   REMARKS
Chicago O`Hare CLEAR     54  37  52 SW6       30.21S
Kankakee       CLEAR     53  37  55 SW6       30.26R
Moline         CLEAR     53  37  54 S7        30.20S
Mount Sterling CLEAR     45  41  86 S5        30.26S
Mount Vernon   CLEAR     43  43 100 CALM      30.32S
Pittsfield     CLEAR     49  43  80 CALM      30.28S
Quincy         CLEAR     53  38  56 S6        30.26R
Rockford       CLEAR     49  38  65 S7        30.22S
$$


CITY           SKY/WX    TMP DP  RH WIND       PRES   REMARKS
Burlington     CLEAR     52  41  66 S6        30.22F
Cedar Rapids   CLEAR     51  37  58 S7        30.16F
Des Moines     CLEAR     56  40  55 S9        30.15S
Kirksville     CLEAR     52  40  63 S7        30.25S
Ottumwa        CLEAR     53  39  59 S10       30.19S
St Louis       CLEAR     54  42  64 SW3       30.29S
$$


CITY           SKY/WX    TMP DP  RH WIND       PRES   REMARKS
Terre Haute    CLEAR     45  40  82 CALM      30.30S
Evansville     CLEAR     48  42  80 CALM      30.33R
Indianapolis   CLEAR     49  37  63 SW6       30.30S
Lafayette      CLEAR     46  40  79 W3        30.27S
Madison        CLEAR     53  38  56 S8        30.14F
Milwaukee      CLEAR     52  38  58 S7        30.17F
$$






USA.gov is the U.S. government's official web portal to all federal, state and local government web resources and services.